Wind_Speed
40 41 42 41 40 35 30 10 7 24 35 7 4 15 14 9 21 9 8 4 7 4 8 8 9 10 9 6 8 9 7 5 4 9 3 4 4 5 5 5 4 1 4 5
38 38 38 41 42 43 27 5 5 22 29 12 11 7 20 13 13 6 4 4 5 3 4 3 7 7 1 2 6 9 8 1 2 8 6 4 3 5 5 4 4 6 5 6
44 37 46 36 44 46 30 5 8 5 9 9 19 17 13 20 16 18 10 10 5 5 2 4 1 3 2 2 3 5 7 5 7 8 7 4 3 4 4 6 3 4 6 6
46 42 41 37 42 50 34 4 7 8 13 16 15 17 13 17 12 13 9 9 16 10 5 3 6 3 2 2 6 3 4 5 4 5 3 3 1 0 1 4 4 5 7 6
46 41 41 48 40 51 30 6 5 6 3 16 17 18 21 24 20 9 16 16 13 6 7 7 5 7 4 5 2 5 2 3 2 3 3 3 3 3 4 5 3 4 4 5
48 47 46 51 46 49 12 9 5 7 12 17 17 19 19 22 21 13 19 14 15 12 11 8 8 7 11 10 10 7 6 6 3 4 3 3 5 6 6 5 3 5 5 4
48 46 46 48 47 54 12 22 3 6 5 13 19 21 15 21 21 21 13 19 10 6 6 3 4 9 8 8 2 6 6 6 3 3 3 2 7 5 3 9 4 6 9 5
45 42 45 50 46 53 34 21 6 3 10 11 12 18 23 10 19 15 17 11 4 6 4 4 4 5 5 3 6 5 6 5 3 4 3 4 5 4 6 5 1 4 7 7
42 45 41 40 41 27 47 18 5 3 4 9 13 13 15 16 12 12 6 2 3 3 3 3 5 4 5 4 3 4 8 6 5 3 4 7 7 3 5 5 1 3 6 5
43 36 34 31 37 31 46 15 16 4 1 3 11 13 12 11 7 3 4 6 2 4 3 3 3 3 7 6 9 5 4 3 5 2 3 7 7 6 3 6 6 5 6 5
42 40 37 31 36 39 39 33 9 5 2 4 3 5 4 11 15 11 3 5 2 3 4 3 1 3 5 4 6 6 7 7 3 3 3 6 4 4 7 5 4 7 5 4
40 37 29 35 40 43 37 14 20 2 3 3 7 18 23 11 10 7 4 5 6 5 4 2 3 3 1 5 3 2 1 7 6 8 5 3 2 5 5 6 8 4 7 4
38 35 41 35 41 42 31 10 14 11 4 4 2 6 14 18 18 26 5 3 5 4 4 4 3 5 2 4 4 4 1 4 4 6 2 2 5 5 6 6 10 6 4 5
39 39 37 36 36 36 32 16 17 13 3 1 5 10 9 14 10 33 19 11 4 6 4 3 3 4 4 4 5 5 5 6 7 4 3 5 6 5 10 11 11 13 12 12
34 33 32 32 31 31 26 16 20 22 2 2 5 10 5 10 3 12 19 12 6 3 3 3 2 2 4 1 3 1 3 7 5 5 12 5 4 5 8 12 10 10 15 13
29 30 31 31 30 28 19 3 17 22 7 2 3 3 4 8 11 9 7 6 4 3 3 2 1 0 2 4 2 3 2 1 5 6 8 14 13 10 9 14 12 12 13 15
27 26 27 26 26 29 6 3 4 32 15 2 4 4 3 3 4 2 3 5 4 3 2 3 2 4 2 2 3 5 5 11 16 19 18 11 1 8 11 15 17 21 19 18
25 26 25 22 27 21 15 7 14 33 11 2 2 3 2 5 2 3 3 3 4 3 2 2 1 1 1 2 3 10 11 14 11 7 9 13 16 15 13 18 18 14 11 11
28 23 25 22 10 7 9 9 19 21 6 4 1 4 2 3 2 2 3 3 3 2 3 1 3 2 2 2 8 12 11 7 13 14 18 15 16 15 12 12 10 13 10 11
29 16 6 3 12 17 19 5 3 2 2 1 3 1 2 3 2 2 3 1 2 2 2 2 3 1 3 3 5 8 14 18 18 18 10 14 14 13 11 10 8 10 12 14
14 6 3 11 22 5 1 4 3 2 2 3 1 2 4 2 4 2 1 2 1 3 2 4 2 2 3 3 8 9 12 11 6 11 13 14 14 13 13 12 15 17 16 14
6 15 16 8 3 2 4 2 0 1 3 1 2 1 3 2 2 3 2 2 3 2 2 3 2 1 6 8 9 9 10 14 13 18 14 18 19 20 19 18 17 16 17 19
9 6 4 2 1 3 3 4 2 3 2 1 1 2 2 2 4 3 3 3 1 1 3 2 1 4 6 9 9 10 13 18 18 17 22 24 21 21 23 20 18 21 20 18
4 3 4 3 3 3 2 1 2 2 2 4 3 3 3 2 4 2 4 1 2 3 1 3 2 6 8 9 10 15 13 13 15 15 20 21 21 19 19 21 23 22 18 15
5 4 5 4 1 1 2 1 2 3 1 2 3 3 3 3 3 2 3 2 2 3 3 2 4 8 10 11 12 13 12 12 12 17 18 18 20 19 18 19 19 20 20 17
4 6 3 2 2 4 4 4 3 4 2 1 3 3 3 3 3 2 2 4 2 1 1 2 9 10 10 11 11 10 15 16 17 17 19 19 18 18 18 19 18 17 17 16
4 3 3 2 4 3 2 2 3 3 2 3 3 4 2 1 3 3 3 2 1 1 2 4 9 11 13 11 13 15 17 16 17 18 18 18 19 22 18 14 13 14 15 15
Wind_Direction
215 213 218 215 205 205 194 210 200 167 157 169 211 221 207 225 262 281 267 289 231 213 197 185 204 200 202 139 152 158 193 134 182 215 140 138 119 243 178 125 237 143 155 263
209 213 218 213 204 199 176 207 166 169 163 190 212 212 212 225 249 227 260 268 224 188 195 171 184 182 133 62 144 164 170 164 54 343 350 31 193 232 195 103 78 191 143 259
218 214 218 215 205 196 185 187 172 169 200 218 197 186 199 213 246 248 269 286 307 277 239 227 213 141 93 97 111 143 108 147 160 186 204 175 212 260 183 135 120 192 212 234
198 212 214 222 212 195 189 215 195 172 191 212 201 189 188 200 224 210 188 244 235 244 269 194 168 145 96 17 140 134 126 166 167 193 205 180 122 4 281 161 193 152 256 210
201 211 214 225 212 193 195 203 169 159 197 195 200 189 208 200 215 234 212 230 253 252 222 197 186 139 155 190 326 130 73 217 171 208 33 55 171 242 277 240 200 222 238 269
198 204 207 213 211 184 192 239 272 161 200 182 190 206 199 204 204 222 234 197 232 259 244 232 220 200 175 171 164 174 144 135 108 242 342 24 340 226 210 228 243 187 199 188
196 201 213 211 211 198 200 208 292 187 201 188 197 196 199 199 208 214 219 227 227 241 100 77 42 51 65 82 61 134 133 109 102 187 32 348 241 278 161 113 20 61 97 108
195 197 206 203 211 198 203 197 240 207 200 192 178 196 195 197 213 215 226 241 263 151 90 72 53 358 40 3 14 86 133 121 103 138 189 290 297 202 178 135 10 331 130 141
188 193 197 201 216 213 198 211 240 285 138 214 176 189 194 199 205 221 223 102 34 66 99 114 151 176 171 169 116 10 71 60 122 138 149 205 237 254 111 109 166 184 132 137
183 190 195 214 214 196 192 218 233 339 0 262 188 189 191 194 207 185 171 160 92 56 84 118 155 225 167 155 167 184 71 21 145 128 196 285 245 227 92 119 222 149 134 142
183 191 194 199 194 188 183 213 198 204 301 271 25 325 164 195 207 200 176 90 351 66 88 121 70 239 203 117 163 190 156 142 166 95 66 275 205 85 158 190 96 130 102 111
186 191 192 202 180 181 183 211 201 163 247 299 308 281 273 250 258 171 195 167 162 162 120 158 62 264 199 138 206 179 140 173 172 173 212 259 308 136 108 137 129 127 114 121
191 188 184 177 177 181 179 183 186 207 283 299 233 235 273 296 258 212 131 281 153 160 157 135 172 256 152 139 229 120 301 143 130 113 341 53 86 74 85 91 103 86 73 99
172 169 169 171 179 182 176 170 175 199 314 324 283 323 301 292 248 201 193 147 132 100 78 127 161 177 197 203 165 142 198 138 119 75 55 83 28 70 112 98 94 88 70 80
154 158 164 170 175 174 168 164 183 196 285 313 324 295 274 352 259 161 143 134 125 125 108 87 186 188 114 7 80 179 195 167 148 196 184 141 120 109 122 103 100 99 104 89
153 160 163 166 167 163 132 159 211 198 204 305 264 290 353 2 79 104 64 53 60 90 114 205 130 7 114 117 155 303 351 72 150 145 104 105 105 96 105 104 104 98 97 101
154 158 164 166 171 169 179 165 147 190 187 286 311 318 275 337 45 50 46 44 48 62 73 14 45 6 46 91 155 164 91 99 106 114 112 99 55 125 107 105 107 103 100 102
153 156 158 164 168 176 232 270 161 159 151 284 257 281 233 37 341 80 352 78 34 36 126 6 147 305 43 57 147 123 111 104 102 68 82 112 117 112 111 114 117 107 102 99
156 153 164 158 180 191 201 189 152 149 154 204 105 215 176 6 55 79 54 74 130 202 179 159 89 298 165 221 160 142 142 127 124 102 107 115 118 122 124 121 113 111 109 101
158 145 187 180 165 127 131 206 307 86 91 231 219 210 116 83 42 30 72 49 129 86 260 83 67 71 305 53 97 117 122 123 124 110 121 128 129 134 131 125 114 113 106 101
164 206 138 110 129 100 142 162 169 172 157 251 227 138 123 351 104 123 41 130 69 103 218 136 143 155 206 122 107 111 119 125 91 116 132 135 135 132 124 111 107 108 108 113
194 114 96 79 62 80 109 190 353 110 183 278 118 49 80 26 89 88 16 100 49 163 148 85 169 153 135 116 114 112 116 116 117 122 121 120 120 119 114 113 109 109 116 122
90 61 61 190 229 92 114 144 109 101 348 277 92 76 109 60 40 72 90 94 178 65 48 197 40 134 119 127 114 103 96 103 106 107 108 105 104 111 118 114 114 115 111 117
69 67 50 33 44 36 35 90 119 192 185 108 94 73 70 59 45 59 85 346 61 87 105 221 148 135 130 128 116 112 109 106 106 107 107 106 108 106 113 119 129 122 115 116
67 34 45 34 337 341 336 4 55 355 34 69 76 68 74 59 100 38 104 87 134 174 209 149 123 126 123 119 118 115 111 107 106 110 108 112 116 115 112 125 129 130 128 120
60 38 63 358 47 16 14 9 27 353 333 77 57 88 73 56 113 89 62 115 137 161 46 109 124 117 118 117 111 108 111 113 117 122 124 121 121 124 124 128 127 133 133 124
47 39 10 23 56 38 359 342 338 310 44 58 63 59 77 113 71 58 21 58 28 44 51 96 120 123 122 111 109 110 115 119 122 123 124 122 125 132 129 127 130 133 134 126
Height
706 713 722 730 739 751 758 759 755 755 763 777 775 764 764 761 748 752 754 745 745 740 745 749 754 753 745 737 743 762 761 784 799 777 761 760 769 776 777 815 799 810 826 804
696 705 713 721 729 737 748 745 747 754 754 762 762 758 758 759 748 749 748 744 736 729 737 745 745 742 733 732 738 753 756 778 802 790 772 762 771 765 766 779 797 800 825 804
688 697 705 713 720 729 740 733 741 748 746 735 742 748 752 758 744 750 749 747 741 741 737 734 736 740 735 736 736 744 745 767 780 797 780 769 769 760 759 776 812 796 799 776
675 687 696 704 711 720 733 719 715 715 726 730 731 741 743 748 747 741 738 742 742 745 747 738 742 741 741 738 741 741 750 766 762 764 760 759 759 759 759 766 772 788 776 777
664 677 685 694 703 714 725 706 707 708 711 722 731 730 730 734 738 732 732 743 734 736 742 737 739 736 739 744 741 741 748 766 761 766 767 765 766 761 762 762 760 763 762 767
654 666 678 685 693 703 705 703 698 699 706 712 724 714 721 724 729 724 720 726 731 730 728 724 722 720 723 727 743 751 755 767 787 784 781 774 792 767 762 756 755 755 768 764
646 658 667 676 685 690 696 699 696 695 702 699 700 712 716 718 717 725 715 722 726 716 715 720 722 727 729 734 740 737 759 770 793 800 796 807 765 749 749 761 762 758 761 764
640 650 661 669 679 686 695 697 698 693 701 694 698 706 711 714 714 715 716 714 712 711 721 739 744 757 749 745 747 740 744 773 791 798 802 781 758 749 755 758 769 763 765 767
635 648 655 665 674 678 692 694 698 695 696 690 693 703 704 708 710 719 712 711 711 714 730 750 750 761 748 753 752 751 752 763 777 803 799 802 766 746 742 748 783 762 763 764
632 642 651 657 665 673 688 690 695 698 693 688 686 691 698 699 705 710 710 710 715 717 748 759 758 755 737 757 763 768 780 791 790 820 805 785 755 744 742 773 779 760 762 763
629 637 646 654 662 673 683 692 698 705 698 692 688 687 686 689 691 700 707 715 720 730 746 748 750 762 744 749 744 756 758 780 799 801 805 781 743 743 757 760 759 761 762 763
627 634 641 652 662 673 685 691 697 701 705 695 692 689 687 687 685 692 701 696 706 715 731 739 750 756 754 745 759 739 754 747 763 766 768 750 745 744 748 751 755 761 762 764
625 634 643 652 663 673 683 688 696 706 705 694 688 684 678 679 678 680 695 702 694 702 703 723 738 749 738 747 754 737 730 730 743 751 755 754 751 751 751 754 760 764 764 763
623 634 644 655 665 675 685 690 695 705 699 697 687 674 673 672 669 671 672 679 689 695 705 726 733 739 721 743 724 730 727 727 739 758 758 757 757 757 759 763 766 767 770 771
628 639 649 659 668 678 688 694 697 702 704 702 686 683 674 670 668 667 669 674 682 695 712 727 723 720 722 728 729 737 717 722 738 752 738 746 757 762 763 765 770 772 772 779
636 644 653 661 670 678 684 696 699 700 704 705 694 678 674 672 667 672 675 677 684 693 703 721 711 708 720 732 746 720 719 717 716 729 737 746 758 765 767 769 774 777 778 783
641 649 657 665 672 678 682 686 683 692 707 706 699 688 679 676 675 682 683 684 693 697 708 715 711 715 722 733 733 721 724 724 727 731 740 757 759 768 771 773 778 781 784 788
646 653 661 668 675 683 685 682 683 691 704 708 700 688 682 674 679 688 690 693 705 711 710 723 727 725 730 732 721 724 727 729 736 740 738 750 762 769 775 778 781 785 790 794
649 656 664 672 677 676 678 681 685 686 695 701 697 688 679 683 689 695 702 703 717 713 722 720 720 729 728 723 725 724 726 728 743 748 751 760 766 773 777 780 785 788 794 798
654 659 660 662 665 669 674 686 685 683 691 698 690 686 685 686 700 703 708 711 716 723 720 718 731 735 732 728 728 729 732 736 742 751 762 765 770 775 779 784 788 791 796 801
654 652 649 656 662 667 676 681 685 686 696 691 683 684 681 687 696 703 710 712 718 721 719 724 728 732 733 730 732 734 736 740 744 748 756 762 767 774 780 787 791 795 800 804
636 637 647 654 663 671 675 683 688 684 685 687 684 684 683 692 689 699 709 711 723 721 718 721 725 730 729 732 735 737 740 743 749 755 760 766 772 777 783 789 795 800 803 807
637 645 658 662 675 674 680 681 681 684 686 685 687 691 694 696 697 709 713 716 728 724 736 718 729 730 733 735 739 743 746 750 756 761 766 770 778 783 787 794 799 802 806 810
649 657 667 671 674 682 684 683 685 693 691 686 687 692 696 704 704 714 710 721 721 725 734 730 734 734 737 739 743 748 756 759 763 768 773 778 783 790 794 797 801 804 808 812
661 669 679 683 688 688 687 686 685 687 687 689 690 695 697 706 711 715 717 718 720 726 726 730 734 738 741 745 750 755 761 765 770 775 780 785 789 793 798 801 804 807 810 813
677 685 686 690 688 689 691 692 692 692 692 690 691 698 703 711 713 711 716 717 722 728 733 735 736 741 746 750 756 760 765 770 775 780 784 788 792 795 800 804 807 810 812 814
690 698 700 698 699 701 701 700 698 696 694 696 703 699 709 714 714 721 728 732 735 737 738 739 741 746 752 757 761 766 770 775 778 782 787 791 795 799 803 806 810 811 813 815